User: anonymous   Login
Location: Newark
(45.8667°N, 9.7333°E)
Time: 16:30:46
(UTC+00:00)
Language:

Courier 1B - Orbit

View from above orbital plane
View from above orbital plane
View from above satellite
View from above satellite

Ground track
Ground track

The orbit data is extracted from the following two-line orbital elements,

1    58U 60013A   20023.64655193  .00000079  00000-0 -11422-4 0  9990
2    58  28.3284 114.3434 0165051 302.1469  56.3159 13.46320587919484
Epoch (UTC): 23 January 2020 15:31:02
Eccentricity: 0.0165051
inclination: 28.3284°
perigee height: 962 km
apogee height: 1209 km
right ascension of ascending node: 114.3434°
argument of perigee: 302.1469°
revolutions per day: 13.46320587
mean anomaly at epoch: 56.3159°
orbit number at epoch: 91948

The dashed part of the orbit path shows where the satellite is in the earth's shadow,  

DLR